Location: Milton
(43.5183°N, 79.8775°W)
Time: 06:52:34
(UTC+00:00)

LilacSat-2 - Pass Details

Date: 03 April 2023
Orbit: 498 x 516 km, 97.5° (Epoch: 06 June)

Event Time Altitude Azimuth Distance (km) Brightness Sun altitude
Rises 10:13:05 0° 34° (NE) 2,603 ? -8.8°
Reaches altitude 10° 10:16:19 10° 66° (ENE) 1,715 ? -8.2°
Maximum altitude 10:17:53 12° 91° (E) 1,575 ? -8.0°
Drops below altitude 10° 10:19:26 10° 116° (ESE) 1,713 ? -7.7°
Sets 10:22:39 0° 147° (SSE) 2,596 ? -7.1°
